Anderson, SC

5:09 AM EDT on September 25, 2016 (GMT -0400)
Anderson Regional

Weather History for KAND - May, 2013

Change the Weather History Date:

Tuesday, May 21, 2013

  Actual Average Record
Temperature  
Mean Temperature 76 °F -  
Max Temperature 88 °F 81 °F 95 °F (1962)
Min Temperature 66 °F 59 °F 43 °F (1954)
Cooling Degree Days 12    
Growing Degree Days 26 (Base 50)    
Moisture  
Dew Point 67 °F    
Average Humidity 78    
Maximum Humidity 100    
Minimum Humidity 43    
Precipitation  
Precipitation 0.00 in - - ()
Sea Level Pressure  
Sea Level Pressure 29.99 in    
Wind  
Wind Speed 2 mph (SSW)    
Max Wind Speed 17 mph    
Max Gust Speed 21 mph    
Visibility 8 miles    
Events Thunderstorm    
Averages and records for this station are not official NWS values.
T = Trace of Precipitation, MM = Missing Value Source: NWS Daily Summary

Daily Weather History Graph

Daily Weather History Graph

Search for Another Location

Airport or City:

Trip Planner

Search our weather history database for the weather conditions in past years. The results will help you decide how hot, cold, wet, or windy it might be!

Date:

Astronomy

May. 21, 2013 Rise Set
Actual Time 6:24 AM EDT 8:31 PM EDT
Civil Twilight 5:55 AM EDT 8:59 PM EDT
Nautical Twilight 5:21 AM EDT 9:34 PM EDT
Astronomical Twilight 4:44 AM EDT 10:11 PM EDT
Moon 4:51 PM EDT (5/21) 3:41 AM EDT (5/21)
Length of Visible Light 15h 03m
Length of Day
14h 06m
Waxing Gibbous, 84% of the Moon is Illuminated
May 21
Waxing Gibbous
May 25
Full
May 31
Last Quarter
Jun 8
New
Jun 16
First Quarter

Hourly Weather History & Observations

Time (EDT) Temp. Heat Index Dew Point Humidity Pressure Visibility Wind Dir Wind Speed Gust Speed Precip Events Conditions
12:56 AM 70.0 °F - 68.0 °F 93% 30.01 in 10.0 mi Calm Calm - N/A   Overcast
1:56 AM 69.1 °F - 68.0 °F 96% 30.01 in 9.0 mi Calm Calm - N/A   Mostly Cloudy
2:56 AM 66.9 °F - 66.0 °F 97% 29.99 in 7.0 mi Calm Calm - N/A   Clear
3:56 AM 66.9 °F - 66.9 °F 100% 30.01 in 7.0 mi Calm Calm - N/A   Overcast
4:56 AM 66.9 °F - 66.0 °F 97% 30.00 in 7.0 mi Calm Calm - N/A   Partly Cloudy
5:56 AM 66.0 °F - 66.0 °F 100% 30.01 in 3.0 mi Calm Calm - N/A   Mostly Cloudy
6:35 AM 66.2 °F - 66.2 °F 100% 30.04 in 2.5 mi Calm Calm - N/A   Clear
6:45 AM 66.2 °F - 64.4 °F 94% 30.04 in 5.0 mi Calm Calm - N/A   Clear
6:56 AM 66.0 °F - 64.9 °F 96% 30.01 in 3.0 mi Calm Calm - N/A   Partly Cloudy
7:11 AM 66.2 °F - 64.4 °F 94% 30.04 in 5.0 mi Calm Calm - N/A   Mostly Cloudy
7:37 AM 69.8 °F - 68.0 °F 94% 30.04 in 4.0 mi Calm Calm - N/A   Scattered Clouds
7:56 AM 69.1 °F - 69.1 °F 100% 30.02 in 4.0 mi Calm Calm - N/A   Clear
8:56 AM 73.9 °F - 70.0 °F 87% 30.03 in 8.0 mi SW 3.5 mph - N/A   Clear
9:56 AM 79.0 °F - 69.1 °F 72% 30.04 in 10.0 mi WSW 8.1 mph - N/A   Mostly Cloudy
10:56 AM 81.0 °F 83.8 °F 68.0 °F 65% 30.04 in 10.0 mi Variable 6.9 mph - N/A   Scattered Clouds
11:56 AM 82.9 °F 86.5 °F 69.1 °F 63% 30.03 in 10.0 mi SSW 8.1 mph - N/A   Clear
12:56 PM 82.9 °F 85.8 °F 68.0 °F 60% 30.01 in 10.0 mi West 6.9 mph - N/A   Partly Cloudy
1:56 PM 86.0 °F 89.4 °F 68.0 °F 55% 29.99 in 10.0 mi SW 6.9 mph - N/A   Partly Cloudy
2:56 PM 87.1 °F 89.9 °F 66.9 °F 51% 29.97 in 10.0 mi SSW 5.8 mph - N/A   Partly Cloudy
3:56 PM 87.1 °F 89.2 °F 66.0 °F 49% 29.94 in 10.0 mi SW 5.8 mph - N/A   Clear
4:56 PM 87.1 °F 88.9 °F 64.9 °F 48% 29.93 in 10.0 mi WSW 6.9 mph - N/A   Scattered Clouds
5:56 PM 87.1 °F 87.5 °F 62.1 °F 43% 29.92 in 10.0 mi WSW 4.6 mph - N/A   Clear
6:56 PM 84.9 °F 87.1 °F 66.0 °F 53% 29.93 in 10.0 mi South 5.8 mph - N/A   Mostly Cloudy
7:09 PM 82.4 °F 86.3 °F 69.8 °F 66% 29.96 in 10.0 mi SSE 17.3 mph 20.7 mph N/A Thunderstorm Mostly Cloudy
7:25 PM 78.8 °F - 66.2 °F 65% 29.96 in 10.0 mi SE 10.4 mph 19.6 mph N/A   Overcast
7:56 PM 75.0 °F - 68.0 °F 79% 29.94 in 10.0 mi South 6.9 mph - N/A   Mostly Cloudy
8:56 PM 75.0 °F - 66.9 °F 76% 29.96 in 10.0 mi NE 3.5 mph - N/A   Clear
9:56 PM 72.0 °F - 66.9 °F 84% 29.96 in 10.0 mi Calm Calm - N/A   Clear
10:56 PM 72.0 °F - 66.0 °F 81% 29.99 in 10.0 mi SE 6.9 mph - N/A   Clear
11:56 PM 69.1 °F - 64.9 °F 87% 30.00 in 10.0 mi South 4.6 mph - N/A   Clear